Kuantan Airport Kuantan MY
ICAO: WMKD
IATA:
Category: Medium
Scheduled Services:

Elevation: 58 ft
TransAlt. 11000 ft.

Airport Communications:
APP:118.1
ATIS:127.5
GND:28.96
TWR:118.1

WMKD Zoom In..

If you have problems with the map follow the link
https://www.worldairports.se/pages/airport.php?
ICAO=WMKD

Runways:

(A) RW 18 length 9199 ft width 151 ft
---- / hdg 182

(B) RW 36 length 9199 ft width 151 ft
ILS 109.50 / hdg 2

Location; WMKD
Day. 05 / Time. 15.00 Zulu
* QNH: 1013
* Temperature: 24° c. 75.2°f.
* Wind from: 330° Speed 05 kn.
Dewpoint: 22° c.
Visibility: 10 km or more.
Clouds: Few 2400 ft.
No significant changes expected in the near future.

WMKD 051500Z 33005KT 9999 FEW024 24/22 Q1013 NOSIG


Wind From 330°
Speed 05 kn.

 
 
jpsmedia worldairports.se 2019   terms of use